CAPE
nan nan nan nan nan nan nan nan nan nan nan nan nan nan nan nan nan nan nan nan nan nan nan nan nan nan nan nan nan nan nan nan nan nan nan nan nan nan nan nan nan nan nan nan nan nan 0 2 2 3 4 5 6 6 6 6 6 6 7 7 7 9 11 14 14 18 20 20 22 22 23 30 38 38 46 50 52 52 52 50 50 52 55 59 59 64
nan nan nan nan nan nan nan nan nan nan nan nan nan nan nan nan nan nan nan nan nan nan nan nan nan nan nan nan nan nan nan nan nan nan nan nan nan nan nan nan nan nan nan nan nan nan 0 2 2 3 4 4 5 5 5 5 5 4 4 5 5 6 8 10 10 14 18 19 20 20 24 29 37 37 44 45 42 42 43 42 42 51 59 64 64 64
nan nan nan nan nan nan nan nan nan nan nan nan nan nan nan nan nan nan nan nan nan nan nan nan nan nan nan nan nan nan nan nan nan nan nan nan nan nan nan nan nan nan nan nan nan 0 1 2 2 3 3 4 4 4 4 4 4 4 4 4 4 5 6 7 7 9 12 16 18 18 24 29 36 36 40 37 36 36 40 44 44 59 66 69 69 69
nan nan nan nan nan nan nan nan nan nan nan nan nan nan nan nan nan nan nan nan nan nan nan nan nan nan nan nan nan nan nan nan nan nan nan nan nan nan nan nan nan nan nan nan nan 0 1 1 1 2 3 3 3 3 4 3 3 3 3 4 4 4 6 6 6 6 7 13 16 16 22 25 32 32 35 35 37 37 45 55 55 64 73 73 73 72
nan nan nan nan nan nan nan nan nan nan nan nan nan nan nan nan nan nan nan nan nan nan nan nan nan nan nan nan nan nan nan nan nan nan nan nan nan nan nan nan nan nan nan nan nan 0 0 1 1 1 2 2 2 2 2 3 3 3 3 3 3 4 6 6 6 5 8 12 14 14 19 22 30 30 31 35 40 40 47 55 55 64 76 77 77 76
nan nan nan nan nan nan nan nan nan nan nan nan nan nan nan nan nan nan nan nan nan nan nan nan nan nan nan nan nan nan nan nan nan nan nan nan nan nan nan nan nan nan nan nan nan nan 0 0 0 0 1 1 1 1 2 2 2 2 3 3 3 4 4 5 5 6 9 12 14 14 18 24 29 29 31 35 39 39 45 53 53 66 76 83 83 85
nan nan nan nan nan nan nan nan nan nan nan nan nan nan nan nan nan nan nan nan nan nan nan nan nan nan nan nan nan nan nan nan nan nan nan nan nan nan nan nan nan nan nan nan nan nan nan nan nan nan nan 0 0 0 0 1 1 1 1 2 2 3 4 6 6 8 11 13 16 16 19 25 29 29 33 36 39 39 47 56 56 68 78 89 89 95
nan nan nan nan nan nan nan nan nan nan nan nan nan nan nan nan nan nan nan nan nan nan nan nan nan nan nan nan nan nan nan nan nan nan nan nan nan nan nan nan nan nan nan nan nan nan nan nan nan nan nan nan nan nan nan nan nan 0 0 1 1 3 6 10 10 12 15 18 22 22 27 28 30 30 34 39 44 44 52 62 62 73 81 92 92 104
nan nan nan nan nan nan nan nan nan nan nan nan nan nan nan nan nan nan nan nan nan nan nan nan nan nan nan nan nan nan nan nan nan nan nan nan nan nan nan nan nan nan nan nan nan nan nan nan nan nan nan nan nan nan nan nan nan nan 0 2 2 4 9 12 12 15 18 22 26 26 29 31 36 36 39 43 50 50 56 64 64 70 76 82 82 101
nan nan nan nan nan nan nan nan nan nan nan nan nan nan nan nan nan nan nan nan nan nan nan nan nan nan nan nan nan nan nan nan nan nan nan nan nan nan nan nan nan nan nan nan nan nan nan nan nan nan nan nan nan nan nan nan nan nan 0 3 3 7 11 13 13 17 21 27 31 31 33 35 39 39 43 46 51 51 57 61 61 63 68 78 78 86
nan nan nan nan nan nan nan nan nan nan nan nan nan nan nan nan nan nan nan nan nan nan nan nan nan nan nan nan nan nan nan nan nan nan nan nan nan nan nan nan nan nan nan nan nan nan nan nan nan nan nan nan nan nan nan nan nan nan 1 5 5 9 11 15 15 19 24 29 34 34 37 40 42 42 47 51 55 55 58 59 59 61 64 70 70 78
nan nan nan nan nan nan nan nan nan nan nan nan nan nan nan nan nan nan nan nan nan nan nan nan nan nan nan nan nan nan nan nan nan nan nan nan nan nan nan nan nan nan nan nan nan nan nan nan nan nan nan nan nan nan nan nan nan 0 3 7 7 10 13 16 16 20 26 34 36 36 39 45 47 47 52 55 59 59 59 57 57 60 60 66 66 70
nan nan nan nan nan nan nan nan nan nan nan nan nan nan nan nan nan nan nan nan nan nan nan nan nan nan nan nan nan nan nan nan nan nan nan nan nan nan nan nan nan nan nan nan nan nan nan nan nan nan nan nan nan nan nan nan nan 1 4 8 8 12 15 18 18 24 28 34 39 39 41 45 51 51 55 59 58 58 58 61 61 60 59 64 64 71
nan nan nan nan nan nan nan nan nan nan nan nan nan nan nan nan nan nan nan nan nan nan nan nan nan nan nan nan nan nan nan nan nan nan nan nan nan nan nan nan nan nan nan nan nan nan nan nan nan nan nan nan nan nan nan 0 0 3 5 9 9 14 17 19 19 25 30 36 40 40 41 46 48 48 55 56 57 57 58 60 60 60 61 64 64 67
nan nan nan nan nan nan nan nan nan nan nan nan nan nan nan nan nan nan nan nan nan nan nan nan nan nan nan nan nan nan nan nan nan nan nan nan nan nan nan nan nan nan nan nan nan nan nan nan nan nan nan nan nan nan nan 0 0 4 6 10 10 14 18 19 19 27 32 38 41 41 42 44 47 47 51 54 56 56 57 58 58 57 61 61 61 61
nan nan nan nan nan nan nan nan nan nan nan nan nan nan nan nan nan nan nan nan nan nan nan nan nan nan nan nan nan nan nan nan nan nan nan nan nan nan nan nan nan nan nan nan nan nan nan nan nan nan nan nan nan nan nan 1 1 4 7 11 11 16 17 20 20 26 33 36 40 40 42 42 44 44 45 50 54 54 58 58 58 59 56 55 55 54
nan nan nan nan nan nan nan nan nan nan nan nan nan nan nan nan nan nan nan nan nan nan nan nan nan nan nan nan nan nan nan nan nan nan nan nan nan nan nan nan nan nan nan nan nan nan nan nan nan nan nan nan nan nan nan 0 0 3 7 10 10 15 18 22 22 27 32 35 39 39 41 41 40 40 45 48 52 52 55 57 57 56 52 49 49 50
nan nan nan nan nan nan nan nan nan nan nan nan nan nan nan nan nan nan nan nan nan nan nan nan nan nan nan nan nan nan nan nan nan nan nan nan nan nan nan nan nan nan nan nan nan nan nan nan nan nan nan nan nan nan nan 0 0 2 6 10 10 15 19 23 23 28 34 36 38 38 39 40 40 40 39 44 51 51 51 51 51 51 49 46 46 46
nan nan nan nan nan nan nan nan nan nan nan nan nan nan nan nan nan nan nan nan nan nan nan nan nan nan nan nan nan nan nan nan nan nan nan nan nan nan nan nan nan nan nan nan nan nan nan nan nan nan nan nan nan nan nan 0 0 2 7 12 12 15 19 24 24 29 31 34 36 36 39 39 39 39 39 44 47 47 51 51 51 51 50 45 45 52
nan nan nan nan nan nan nan nan nan nan nan nan nan nan nan nan nan nan nan nan nan nan nan nan nan nan nan nan nan nan nan nan nan nan nan nan nan nan nan nan nan nan nan nan nan nan nan nan nan nan nan nan nan nan nan 0 0 3 8 13 13 18 22 24 24 28 31 33 35 35 36 40 38 38 39 43 46 46 49 50 50 50 47 49 49 66
nan nan nan nan nan nan nan nan nan nan nan nan nan nan nan nan nan nan nan nan nan nan nan nan nan nan nan nan nan nan nan nan nan nan nan nan nan nan nan nan nan nan nan nan nan nan nan nan nan nan nan nan nan nan nan 0 0 3 9 13 13 18 22 24 24 27 28 31 33 33 36 39 38 38 39 40 44 44 43 47 47 46 47 57 57 73
nan nan nan nan nan nan nan nan nan nan nan nan nan nan nan nan nan nan nan nan nan nan nan nan nan nan nan nan nan nan nan nan nan nan nan nan nan nan nan nan nan nan nan nan nan nan nan nan nan nan nan nan nan nan nan 0 0 3 10 14 14 18 21 24 24 25 28 29 33 33 37 38 37 37 36 39 40 40 42 45 45 45 51 64 64 61
nan nan nan nan nan nan nan nan nan nan nan nan nan nan nan nan nan nan nan nan nan nan nan nan nan nan nan nan nan nan nan nan nan nan nan nan nan nan nan nan nan nan nan nan nan nan nan nan nan nan nan nan nan nan nan nan nan 2 9 14 14 17 19 22 22 25 28 29 32 32 37 38 35 35 36 36 38 38 40 43 43 45 55 61 61 50
nan nan nan nan nan nan nan nan nan nan nan nan nan nan nan nan nan nan nan nan nan nan nan nan nan nan nan nan nan nan nan nan nan nan nan nan nan nan nan nan nan nan nan nan nan nan nan nan nan nan nan nan nan nan nan nan nan 2 9 13 13 14 16 19 19 23 26 29 30 30 34 35 35 35 35 35 35 35 40 44 44 51 62 60 60 45
nan nan nan nan nan nan nan nan nan nan nan nan nan nan nan nan nan nan nan nan nan nan nan nan nan nan nan nan nan nan nan nan nan nan nan nan nan nan nan nan nan nan nan nan nan nan nan nan nan nan nan nan nan nan nan nan nan 3 8 12 12 13 14 17 17 19 24 26 29 29 32 34 34 34 35 33 34 34 39 45 45 55 63 57 57 40
nan nan nan nan nan nan 0 0 nan nan nan nan nan nan nan nan nan nan nan nan nan nan nan nan nan nan nan nan nan nan nan nan nan nan nan nan nan nan nan nan nan nan nan nan nan nan nan nan nan nan nan nan nan nan nan nan nan 3 6 9 9 11 13 15 15 18 22 26 29 29 29 31 34 34 33 35 34 34 40 47 47 59 59 50 50 39
0 3 6 5 5 4 3 6 6 6 4 0 nan nan nan nan nan nan nan nan nan nan nan nan nan nan nan nan nan nan nan nan nan nan nan nan nan nan nan nan nan nan nan nan nan nan nan nan nan nan nan nan nan nan nan 0 0 2 4 7 7 10 12 13 13 17 19 23 26 26 26 29 30 30 32 33 34 34 41 50 50 56 49 40 40 38
9 6 2 1 1 1 1 1 3 3 6 3 nan nan nan nan nan nan nan nan nan nan nan nan nan nan nan nan nan nan nan nan nan nan nan nan nan nan nan nan nan nan nan nan nan nan nan nan nan nan nan nan nan nan nan 0 0 2 3 5 5 6 10 12 12 14 17 19 24 24 25 28 29 29 32 34 36 36 41 51 51 52 43 31 31 20
2 0 nan nan nan nan nan nan nan nan 1 0 nan nan nan nan nan nan nan nan nan nan nan nan nan nan nan nan nan nan nan nan nan nan nan nan nan nan nan nan nan nan nan nan nan nan nan nan nan nan nan nan nan nan nan 0 0 1 2 2 2 3 6 10 10 13 14 17 19 19 24 27 27 27 31 32 37 37 42 48 48 49 36 23 23 21
nan nan nan nan nan nan nan nan nan nan nan nan nan nan nan nan nan nan nan nan nan nan nan nan nan nan nan nan nan nan nan nan nan nan nan nan nan nan nan nan nan nan nan nan nan nan nan nan nan nan nan nan nan nan nan nan nan nan 0 1 1 1 3 6 6 10 12 15 19 19 23 23 24 24 30 33 37 37 42 48 48 45 24 19 19 21
nan nan nan nan nan nan nan nan nan nan nan nan nan nan nan nan nan nan nan nan nan nan nan nan nan nan nan nan nan nan nan nan nan nan nan nan nan nan nan nan nan nan nan nan nan nan nan nan nan nan nan nan nan nan nan nan nan nan nan nan nan nan 2 3 3 7 9 12 17 17 20 21 23 23 27 32 35 35 40 48 48 43 20 20 20 19
nan nan nan nan nan nan nan nan nan nan nan nan nan nan nan nan nan nan nan nan nan nan nan nan nan nan nan nan nan nan nan nan nan nan nan nan nan nan nan nan nan nan nan nan nan nan nan nan nan nan nan nan nan nan nan nan nan nan nan nan nan nan 0 2 2 3 4 7 9 9 12 15 19 19 25 27 31 31 35 40 40 37 24 19 19 19
nan nan nan nan nan nan nan nan nan nan nan nan nan nan nan nan nan nan nan nan nan nan nan nan nan nan nan nan nan nan nan nan nan nan nan nan nan nan nan nan nan nan nan nan nan nan nan nan nan nan nan nan nan nan nan nan nan nan nan nan nan nan nan 0 0 0 2 3 4 4 9 11 17 17 21 25 30 30 34 36 36 35 32 18 18 20
nan nan nan nan nan nan nan nan nan nan nan nan nan nan nan nan nan nan nan nan nan nan nan nan nan nan nan nan nan nan nan nan nan nan nan nan nan nan nan nan nan nan nan nan nan nan nan nan nan nan nan nan nan nan nan nan nan nan nan nan nan nan nan 0 0 0 0 1 0 0 2 4 15 15 15 21 27 27 30 32 32 32 30 24 24 19
nan nan nan nan nan nan nan nan nan nan nan nan nan nan nan nan nan nan nan nan nan nan nan nan nan nan nan nan nan nan nan nan nan nan 0 nan nan nan nan nan nan nan nan nan nan nan nan nan nan nan nan nan nan nan nan nan nan nan nan nan nan nan nan 0 0 1 1 0 0 0 0 1 3 3 8 17 24 24 28 28 28 26 24 25 25 20
nan nan nan nan nan nan nan nan nan nan nan nan nan nan nan nan nan nan nan nan nan nan nan nan nan nan nan nan nan nan nan nan nan nan 1 1 nan nan nan nan nan nan nan nan nan 0 nan nan nan 0 0 nan nan nan nan nan nan nan nan nan nan nan 0 1 1 2 1 0 0 0 1 2 3 3 7 19 21 21 21 20 20 21 21 19 19 18
nan nan nan nan nan nan nan nan nan nan nan nan nan nan nan nan nan nan nan nan nan nan nan nan nan 0 2 0 nan nan nan nan nan nan 1 3 1 1 0 nan nan 1 0 0 0 0 0 0 0 nan nan nan nan nan nan nan nan nan nan nan nan nan 0 3 3 3 1 1 1 1 2 3 5 5 9 17 14 14 14 16 16 17 17 16 16 16
nan nan nan nan nan nan nan nan nan nan nan nan nan nan nan nan nan nan nan 0 0 1 nan nan nan nan 2 3 3 3 2 2 1 1 3 6 3 3 2 1 1 1 1 1 1 1 1 0 0 0 nan nan nan nan nan nan nan nan nan nan nan nan 0 3 3 2 2 2 4 4 4 3 3 3 6 7 3 3 3 4 4 10 13 13 13 15
nan nan nan nan nan nan nan nan nan nan nan nan nan nan nan nan nan nan nan nan nan nan nan nan nan nan nan 1 1 1 2 2 2 2 4 7 5 5 2 1 1 0 2 2 2 2 2 1 1 0 0 nan nan nan nan nan nan nan nan nan nan nan 0 2 2 2 2 2 4 4 2 2 2 2 3 4 3 3 3 2 2 5 6 7 7 12
nan nan nan nan nan nan nan nan nan nan nan nan nan nan nan nan nan nan nan nan nan nan nan nan nan nan nan nan nan nan 0 1 1 1 3 4 4 4 1 0 0 0 0 2 2 1 1 1 1 1 3 0 0 0 nan nan nan nan 1 0 0 nan 0 1 1 2 2 2 1 1 1 1 3 3 3 3 4 4 4 3 3 3 4 4 4 3
nan nan nan nan nan nan nan nan nan nan nan nan nan nan nan nan nan nan nan nan nan nan nan nan nan nan nan nan nan nan nan nan nan nan 0 2 2 2 nan nan nan nan 0 1 1 0 1 1 1 2 1 1 1 1 0 nan nan 0 3 0 0 0 0 1 1 2 2 1 1 1 3 4 5 5 3 3 3 3 5 4 4 2 3 3 3 3
nan nan nan nan nan nan nan nan nan nan nan nan nan nan nan nan nan nan nan nan nan nan nan nan nan nan nan nan nan nan nan nan nan nan nan 1 1 1 0 nan nan nan nan 0 0 0 1 1 1 2 1 1 1 1 nan nan nan 0 0 0 0 1 1 1 1 1 0 0 1 1 6 4 3 3 3 4 3 3 5 4 4 6 4 1 1 1
nan nan nan nan nan nan nan nan nan nan nan nan nan nan nan nan nan nan nan nan nan nan nan nan nan nan nan nan nan nan 0 nan nan nan nan 0 1 1 0 nan nan nan nan 0 0 0 0 2 2 1 1 1 0 0 nan nan nan nan nan 1 1 2 1 nan nan 0 0 1 1 1 2 3 3 3 2 3 3 3 4 5 5 7 4 1 1 0
nan nan nan nan nan nan nan nan nan nan nan nan nan nan nan nan nan nan nan nan nan nan nan nan nan nan nan nan nan nan nan 0 1 1 0 2 3 3 1 0 0 0 0 0 0 nan 0 1 1 0 1 1 0 0 nan nan nan nan nan 0 0 1 0 nan nan nan 0 0 1 1 2 4 2 2 1 1 2 2 3 2 2 1 2 1 1 1
nan nan nan nan nan nan nan nan nan nan nan nan nan nan nan nan nan nan nan nan nan nan nan nan nan nan nan nan nan nan nan nan 1 1 2 4 6 6 4 2 2 1 1 0 0 0 0 0 0 0 1 1 0 0 nan nan nan nan 0 0 0 0 nan nan nan nan 0 1 2 2 3 5 3 3 1 1 2 2 2 2 2 1 1 1 1 1
nan nan nan nan nan nan nan nan nan nan nan nan nan nan nan nan nan nan nan nan nan nan nan nan nan nan nan nan nan nan nan nan nan nan nan 1 3 3 3 4 4 2 1 1 1 0 0 0 0 0 1 1 0 0 nan nan nan nan nan 0 0 nan 0 nan nan nan 0 1 3 3 6 7 4 4 2 1 2 2 2 2 2 1 1 1 1 2
nan nan nan nan nan nan nan nan nan nan nan nan nan nan nan nan nan nan nan nan nan nan nan nan nan nan nan nan nan nan nan nan nan nan nan 0 0 0 0 1 1 3 1 1 1 0 0 0 0 1 1 1 0 0 nan nan nan 0 0 nan nan nan nan nan nan nan 0 1 2 2 4 7 5 5 2 1 1 1 2 2 2 1 1 2 2 3
nan nan nan nan nan nan nan nan nan nan nan nan nan nan nan nan nan nan nan nan nan nan nan nan nan nan nan nan 0 0 0 0 0 0 nan nan 0 0 0 0 0 1 1 1 1 1 0 0 0 1 1 1 0 0 nan nan nan nan nan nan nan nan 0 nan nan nan 1 2 3 3 3 7 5 5 2 1 1 1 2 3 3 2 1 2 2 3
nan nan nan nan nan nan nan nan nan nan nan nan nan nan nan nan nan nan nan nan nan nan nan nan nan nan nan nan 1 1 2 1 0 0 0 nan nan nan 0 1 1 0 0 1 1 0 0 0 0 nan nan nan nan nan nan nan nan nan nan nan nan nan 0 0 0 0 1 3 4 4 3 3 3 3 2 1 1 1 2 3 3 2 2 2 2 3
nan nan nan nan nan nan nan nan nan nan nan nan nan nan nan nan nan nan nan nan nan nan nan nan nan nan nan nan 1 1 1 1 0 0 0 nan nan nan 0 1 1 1 0 0 0 nan nan 0 0 nan nan nan nan nan nan nan nan nan nan nan nan 0 1 2 2 2 2 3 3 3 3 3 2 2 2 1 1 1 1 3 3 3 3 3 3 3
nan nan nan nan nan nan nan nan nan nan nan nan nan nan nan nan nan nan nan nan nan nan nan nan nan nan nan nan 1 1 1 0 0 0 0 nan 0 0 0 0 0 1 0 0 0 nan nan nan nan nan 1 1 nan nan nan 0 0 0 1 0 0 1 3 2 2 2 3 3 2 2 3 4 2 2 2 2 1 1 1 3 3 5 4 3 3 4
CIN
nan nan nan nan nan nan nan nan nan nan nan nan nan nan nan nan nan nan nan nan nan nan nan nan nan nan nan nan nan nan nan nan nan nan nan nan nan nan nan nan nan nan nan nan nan nan -0 -0 -0 -0 -0 -0 -0 -0 -0 -0 -0 -0 -0 -0 -0 -0 -0 -0 -0 -0 -0 -0 -0 -0 -0 -0 -0 -0 -0 -0 -0 -0 -0 -0 -0 -0 -0 -0 -0 -0
nan nan nan nan nan nan nan nan nan nan nan nan nan nan nan nan nan nan nan nan nan nan nan nan nan nan nan nan nan nan nan nan nan nan nan nan nan nan nan nan nan nan nan nan nan nan -0 -0 -0 -0 -0 -0 -0 -0 -0 -0 -0 -0 -0 -0 -0 -0 -0 -0 -0 -0 -0 -0 -0 -0 -0 -0 -0 -0 -0 -0 -0 -0 -0 -0 -0 -0 -0 -0 -0 -0
nan nan nan nan nan nan nan nan nan nan nan nan nan nan nan nan nan nan nan nan nan nan nan nan nan nan nan nan nan nan nan nan nan nan nan nan nan nan nan nan nan nan nan nan nan -0 -0 -0 -0 -0 -0 -0 -0 -0 -0 -0 -0 -0 -0 -0 -0 -0 -0 -0 -0 -0 -0 -0 -0 -0 -0 -0 -0 -0 -0 -0 -0 -0 -0 -0 -0 -0 -0 -0 -0 -0
nan nan nan nan nan nan nan nan nan nan nan nan nan nan nan nan nan nan nan nan nan nan nan nan nan nan nan nan nan nan nan nan nan nan nan nan nan nan nan nan nan nan nan nan nan -0 -0 -0 -0 -0 -0 -0 -0 -0 -0 -0 -0 -0 -0 -0 -0 -0 -0 -0 -0 -0 -0 -0 -0 -0 -0 -0 -0 -0 -0 -0 -0 -0 -0 -0 -0 -0 -0 -0 -0 -0
nan nan nan nan nan nan nan nan nan nan nan nan nan nan nan nan nan nan nan nan nan nan nan nan nan nan nan nan nan nan nan nan nan nan nan nan nan nan nan nan nan nan nan nan nan -0 -0 -0 -0 -0 -0 -0 -0 -0 -0 -0 -0 -0 -0 -0 -0 -0 -0 -0 -0 -0 -0 -0 -0 -0 -0 -0 -0 -0 -0 -0 -0 -0 -0 -0 -0 -0 -0 -0 -0 -0
nan nan nan nan nan nan nan nan nan nan nan nan nan nan nan nan nan nan nan nan nan nan nan nan nan nan nan nan nan nan nan nan nan nan nan nan nan nan nan nan nan nan nan nan nan nan -0 -0 -0 -0 -0 -0 -0 -0 -0 -0 -0 -0 -0 -0 -0 -0 -0 -0 -0 -0 -0 -0 -0 -0 -0 -0 -0 -0 -0 -0 -0 -0 -0 -0 -0 -0 -0 -0 -0 -0
nan nan nan nan nan nan nan nan nan nan nan nan nan nan nan nan nan nan nan nan nan nan nan nan nan nan nan nan nan nan nan nan nan nan nan nan nan nan nan nan nan nan nan nan nan nan nan nan nan nan nan -0 -0 -0 -0 -0 -0 -0 -0 -0 -0 -0 -0 -0 -0 -0 -0 -0 -0 -0 -0 -0 -0 -0 -0 -0 -0 -0 -0 -0 -0 -0 -0 -0 -0 -0
nan nan nan nan nan nan nan nan nan nan nan nan nan nan nan nan nan nan nan nan nan nan nan nan nan nan nan nan nan nan nan nan nan nan nan nan nan nan nan nan nan nan nan nan nan nan nan nan nan nan nan nan nan nan nan nan nan -0 -0 -0 -0 -0 -0 -0 -0 -0 -0 -0 -0 -0 -0 -0 -0 -0 -0 -0 -0 -0 -0 -0 -0 -0 -0 -0 -0 -0
nan nan nan nan nan nan nan nan nan nan nan nan nan nan nan nan nan nan nan nan nan nan nan nan nan nan nan nan nan nan nan nan nan nan nan nan nan nan nan nan nan nan nan nan nan nan nan nan nan nan nan nan nan nan nan nan nan nan -0 -0 -0 -0 -0 -0 -0 -0 -0 -0 -0 -0 -0 -0 -0 -0 -0 -0 -0 -0 -0 -0 -0 -0 -0 -0 -0 -0
nan nan nan nan nan nan nan nan nan nan nan nan nan nan nan nan nan nan nan nan nan nan nan nan nan nan nan nan nan nan nan nan nan nan nan nan nan nan nan nan nan nan nan nan nan nan nan nan nan nan nan nan nan nan nan nan nan nan -0 -0 -0 -0 -0 -0 -0 -0 -0 -0 -0 -0 -0 -0 -0 -0 -0 -0 -0 -0 -0 -0 -0 -0 -0 -0 -0 -0
nan nan nan nan nan nan nan nan nan nan nan nan nan nan nan nan nan nan nan nan nan nan nan nan nan nan nan nan nan nan nan nan nan nan nan nan nan nan nan nan nan nan nan nan nan nan nan nan nan nan nan nan nan nan nan nan nan nan -0 -0 -0 -0 -0 -0 -0 -0 -0 -0 -0 -0 -0 -0 -0 -0 -0 -0 -0 -0 -0 -0 -0 -0 -0 -0 -0 -0
nan nan nan nan nan nan nan nan nan nan nan nan nan nan nan nan nan nan nan nan nan nan nan nan nan nan nan nan nan nan nan nan nan nan nan nan nan nan nan nan nan nan nan nan nan nan nan nan nan nan nan nan nan nan nan nan nan -0 -0 -0 -0 -0 -0 -0 -0 -0 -0 -0 -0 -0 -0 -0 -0 -0 -0 -0 -0 -0 -0 -0 -0 -0 -0 -0 -0 -0
nan nan nan nan nan nan nan nan nan nan nan nan nan nan nan nan nan nan nan nan nan nan nan nan nan nan nan nan nan nan nan nan nan nan nan nan nan nan nan nan nan nan nan nan nan nan nan nan nan nan nan nan nan nan nan nan nan -0 -0 -0 -0 -0 -0 -0 -0 -0 -0 -0 -0 -0 -0 -0 -0 -0 -0 -0 -0 -0 -0 -0 -0 -0 -0 -0 -0 -0
nan nan nan nan nan nan nan nan nan nan nan nan nan nan nan nan nan nan nan nan nan nan nan nan nan nan nan nan nan nan nan nan nan nan nan nan nan nan nan nan nan nan nan nan nan nan nan nan nan nan nan nan nan nan nan -0 -0 -0 -0 -0 -0 -0 -0 -0 -0 -0 -0 -0 -0 -0 -0 -0 -0 -0 -0 -0 -0 -0 -0 -0 -0 -0 -0 -0 -0 -0
nan nan nan nan nan nan nan nan nan nan nan nan nan nan nan nan nan nan nan nan nan nan nan nan nan nan nan nan nan nan nan nan nan nan nan nan nan nan nan nan nan nan nan nan nan nan nan nan nan nan nan nan nan nan nan -0 -0 -0 -0 -0 -0 -0 -0 -0 -0 -0 -0 -0 -0 -0 -0 -0 -0 -0 -0 -0 -0 -0 -0 -0 -0 -0 -0 -0 -0 -0
nan nan nan nan nan nan nan nan nan nan nan nan nan nan nan nan nan nan nan nan nan nan nan nan nan nan nan nan nan nan nan nan nan nan nan nan nan nan nan nan nan nan nan nan nan nan nan nan nan nan nan nan nan nan nan -0 -0 -0 -0 -0 -0 -0 -0 -0 -0 -0 -0 -0 -0 -0 -0 -0 -0 -0 -0 -0 -0 -0 -0 -0 -0 -0 -0 -0 -0 -0
nan nan nan nan nan nan nan nan nan nan nan nan nan nan nan nan nan nan nan nan nan nan nan nan nan nan nan nan nan nan nan nan nan nan nan nan nan nan nan nan nan nan nan nan nan nan nan nan nan nan nan nan nan nan nan -0 -0 -0 -0 -0 -0 -0 -0 -0 -0 -0 -0 -0 -0 -0 -0 -0 -0 -0 -0 -0 -0 -0 -0 -0 -0 -0 -0 -0 -0 -0
nan nan nan nan nan nan nan nan nan nan nan nan nan nan nan nan nan nan nan nan nan nan nan nan nan nan nan nan nan nan nan nan nan nan nan nan nan nan nan nan nan nan nan nan nan nan nan nan nan nan nan nan nan nan nan -0 -0 -0 -0 -0 -0 -0 -0 -0 -0 -0 -0 -0 -0 -0 -0 -0 -0 -0 -0 -0 -0 -0 -0 -0 -0 -0 -0 -0 -0 -0
nan nan nan nan nan nan nan nan nan nan nan nan nan nan nan nan nan nan nan nan nan nan nan nan nan nan nan nan nan nan nan nan nan nan nan nan nan nan nan nan nan nan nan nan nan nan nan nan nan nan nan nan nan nan nan -0 -0 -0 -0 -0 -0 -0 -0 -0 -0 -0 -0 -0 -0 -0 -0 -0 -0 -0 -0 -0 -0 -0 -0 -0 -0 -0 -0 -0 -0 -0
nan nan nan nan nan nan nan nan nan nan nan nan nan nan nan nan nan nan nan nan nan nan nan nan nan nan nan nan nan nan nan nan nan nan nan nan nan nan nan nan nan nan nan nan nan nan nan nan nan nan nan nan nan nan nan -0 -0 -0 -0 -0 -0 -0 -0 -0 -0 -0 -0 -0 -0 -0 -0 -0 -0 -0 -0 -0 -0 -0 -0 -0 -0 -0 -0 -0 -0 -0
nan nan nan nan nan nan nan nan nan nan nan nan nan nan nan nan nan nan nan nan nan nan nan nan nan nan nan nan nan nan nan nan nan nan nan nan nan nan nan nan nan nan nan nan nan nan nan nan nan nan nan nan nan nan nan -0 -0 -0 -0 -0 -0 -0 -0 -0 -0 -0 -0 -0 -0 -0 -0 -0 -0 -0 -0 -0 -0 -0 -0 -0 -0 -0 -0 -0 -0 -0
nan nan nan nan nan nan nan nan nan nan nan nan nan nan nan nan nan nan nan nan nan nan nan nan nan nan nan nan nan nan nan nan nan nan nan nan nan nan nan nan nan nan nan nan nan nan nan nan nan nan nan nan nan nan nan -0 -0 -0 -0 -0 -0 -0 -0 -0 -0 -0 -0 -0 -0 -0 -0 -0 -0 -0 -0 -0 -0 -0 -0 -0 -0 -0 -0 -0 -0 -0
nan nan nan nan nan nan nan nan nan nan nan nan nan nan nan nan nan nan nan nan nan nan nan nan nan nan nan nan nan nan nan nan nan nan nan nan nan nan nan nan nan nan nan nan nan nan nan nan nan nan nan nan nan nan nan nan nan -0 -0 -0 -0 -0 -0 -0 -0 -0 -0 -0 -0 -0 -0 -0 -0 -0 -0 -0 -0 -0 -0 -0 -0 -0 -0 -0 -0 -0
nan nan nan nan nan nan nan nan nan nan nan nan nan nan nan nan nan nan nan nan nan nan nan nan nan nan nan nan nan nan nan nan nan nan nan nan nan nan nan nan nan nan nan nan nan nan nan nan nan nan nan nan nan nan nan nan nan -0 -0 -0 -0 -0 -0 -0 -0 -0 -0 -0 -0 -0 -0 -0 -0 -0 -0 -0 -0 -0 -0 -0 -0 -0 -0 -0 -0 -0
nan nan nan nan nan nan nan nan nan nan nan nan nan nan nan nan nan nan nan nan nan nan nan nan nan nan nan nan nan nan nan nan nan nan nan nan nan nan nan nan nan nan nan nan nan nan nan nan nan nan nan nan nan nan nan nan nan -0 -0 -0 -0 -0 -0 -0 -0 -0 -0 -0 -0 -0 -0 -0 -0 -0 -0 -0 -0 -0 -0 -0 -0 -0 -0 -0 -0 -0
nan nan nan nan nan nan -0 -0 nan nan nan nan nan nan nan nan nan nan nan nan nan nan nan nan nan nan nan nan nan nan nan nan nan nan nan nan nan nan nan nan nan nan nan nan nan nan nan nan nan nan nan nan nan nan nan nan nan -0 -0 -0 -0 -0 -0 -0 -0 -0 -0 -0 -0 -0 -0 -0 -0 -0 -0 -0 -0 -0 -0 -0 -0 -0 -0 -0 -0 -0
-0 -0 -0 -0 -0 -0 -0 -0 -0 -0 -0 -0 nan nan nan nan nan nan nan nan nan nan nan nan nan nan nan nan nan nan nan nan nan nan nan nan nan nan nan nan nan nan nan nan nan nan nan nan nan nan nan nan nan nan nan -0 -0 -0 -0 -0 -0 -0 -0 -0 -0 -0 -0 -0 -0 -0 -0 -0 -0 -0 -0 -0 -0 -0 -0 -0 -0 -0 -0 -0 -0 -0
-0 -0 -0 -0 -0 -0 -0 -0 -0 -0 -0 -0 nan nan nan nan nan nan nan nan nan nan nan nan nan nan nan nan nan nan nan nan nan nan nan nan nan nan nan nan nan nan nan nan nan nan nan nan nan nan nan nan nan nan nan -0 -0 -0 -0 -0 -0 -0 -0 -0 -0 -0 -0 -0 -0 -0 -0 -0 -0 -0 -0 -0 -0 -0 -0 -0 -0 -0 -0 -0 -0 -0
-0 -0 nan nan nan nan nan nan nan nan -0 -0 nan nan nan nan nan nan nan nan nan nan nan nan nan nan nan nan nan nan nan nan nan nan nan nan nan nan nan nan nan nan nan nan nan nan nan nan nan nan nan nan nan nan nan -0 -0 -0 -0 -0 -0 -0 -0 -0 -0 -0 -0 -0 -0 -0 -0 -0 -0 -0 -0 -0 -0 -0 -0 -0 -0 -0 -0 -0 -0 -0
nan nan nan nan nan nan nan nan nan nan nan nan nan nan nan nan nan nan nan nan nan nan nan nan nan nan nan nan nan nan nan nan nan nan nan nan nan nan nan nan nan nan nan nan nan nan nan nan nan nan nan nan nan nan nan nan nan nan -0 -0 -0 -0 -0 -0 -0 -0 -0 -0 -0 -0 -0 -0 -0 -0 -0 -0 -0 -0 -0 -0 -0 -0 -0 -0 -0 -0
nan nan nan nan nan nan nan nan nan nan nan nan nan nan nan nan nan nan nan nan nan nan nan nan nan nan nan nan nan nan nan nan nan nan nan nan nan nan nan nan nan nan nan nan nan nan nan nan nan nan nan nan nan nan nan nan nan nan nan nan nan nan -0 -0 -0 -0 -0 -0 -0 -0 -0 -0 -0 -0 -0 -0 -0 -0 -0 -0 -0 -0 -0 -0 -0 -0
nan nan nan nan nan nan nan nan nan nan nan nan nan nan nan nan nan nan nan nan nan nan nan nan nan nan nan nan nan nan nan nan nan nan nan nan nan nan nan nan nan nan nan nan nan nan nan nan nan nan nan nan nan nan nan nan nan nan nan nan nan nan -0 -0 -0 -0 -0 -0 -0 -0 -0 -0 -0 -0 -0 -0 -0 -0 -0 -0 -0 -0 -0 -0 -0 -0
nan nan nan nan nan nan nan nan nan nan nan nan nan nan nan nan nan nan nan nan nan nan nan nan nan nan nan nan nan nan nan nan nan nan nan nan nan nan nan nan nan nan nan nan nan nan nan nan nan nan nan nan nan nan nan nan nan nan nan nan nan nan nan -0 -0 -0 -0 -0 -0 -0 -0 -0 -0 -0 -0 -0 -0 -0 -0 -0 -0 -0 -0 -0 -0 -0
nan nan nan nan nan nan nan nan nan nan nan nan nan nan nan nan nan nan nan nan nan nan nan nan nan nan nan nan nan nan nan nan nan nan nan nan nan nan nan nan nan nan nan nan nan nan nan nan nan nan nan nan nan nan nan nan nan nan nan nan nan nan nan -0 -0 -0 -0 -0 -0 -0 -0 -0 -0 -0 -0 -0 -0 -0 -0 -0 -0 -0 -0 -0 -0 -0
nan nan nan nan nan nan nan nan nan nan nan nan nan nan nan nan nan nan nan nan nan nan nan nan nan nan nan nan nan nan nan nan nan nan -0 nan nan nan nan nan nan nan nan nan nan nan nan nan nan nan nan nan nan nan nan nan nan nan nan nan nan nan nan -0 -0 -0 -0 -0 -0 -0 -0 -0 -0 -0 -0 -0 -0 -0 -0 -0 -0 -0 -0 -0 -0 -0
nan nan nan nan nan nan nan nan nan nan nan nan nan nan nan nan nan nan nan nan nan nan nan nan nan nan nan nan nan nan nan nan nan nan -0 -0 nan nan nan nan nan nan nan nan nan -0 nan nan nan -0 -0 nan nan nan nan nan nan nan nan nan nan nan -0 -0 -0 -0 -0 -0 -0 -0 -0 -0 -0 -0 -0 -0 -0 -0 -0 -0 -0 -0 -0 -0 -0 -0
nan nan nan nan nan nan nan nan nan nan nan nan nan nan nan nan nan nan nan nan nan nan nan nan nan -0 -0 -0 nan nan nan nan nan nan -0 -0 -0 -0 -0 nan nan -0 -0 -0 -0 -0 -0 -0 -0 nan nan nan nan nan nan nan nan nan nan nan nan nan -0 -0 -0 -0 -0 -0 -0 -0 -0 -0 -0 -0 -0 -0 -0 -0 -0 -0 -0 -0 -0 -0 -0 -0
nan nan nan nan nan nan nan nan nan nan nan nan nan nan nan nan nan nan nan -0 -0 -0 nan nan nan nan -0 -0 -0 -0 -0 -0 -0 -0 -0 -0 -0 -0 -0 -0 -0 -0 -0 -0 -0 -0 -0 -0 -0 -0 nan nan nan nan nan nan nan nan nan nan nan nan -0 -0 -0 -0 -0 -0 -0 -0 -0 -0 -0 -0 -0 -0 -0 -0 -0 -0 -0 -0 -0 -0 -0 -0
nan nan nan nan nan nan nan nan nan nan nan nan nan nan nan nan nan nan nan nan nan nan nan nan nan nan nan -0 -0 -0 -0 -0 -0 -0 -0 -0 -0 -0 -0 -0 -0 -0 -0 -0 -0 -0 -0 -0 -0 -0 -0 nan nan nan nan nan nan nan nan nan nan nan -0 -0 -0 -0 -0 -0 -0 -0 -0 -0 -0 -0 -0 -0 -0 -0 -0 -0 -0 -0 -0 -0 -0 -0
nan nan nan nan nan nan nan nan nan nan nan nan nan nan nan nan nan nan nan nan nan nan nan nan nan nan nan nan nan nan -0 -0 -0 -0 -0 -0 -0 -0 -0 -0 -0 -0 -0 -0 -0 -0 -0 -0 -0 -0 -0 -0 -0 -0 nan nan nan nan -0 -0 -0 nan -0 -0 -0 -0 -0 -0 -0 -0 -0 -0 -0 -0 -0 -0 -0 -0 -0 -0 -0 -0 -0 -0 -0 -0
nan nan nan nan nan nan nan nan nan nan nan nan nan nan nan nan nan nan nan nan nan nan nan nan nan nan nan nan nan nan nan nan nan nan -0 -0 -0 -0 nan nan nan nan -0 -0 -0 -0 -0 -0 -0 -0 -0 -0 -0 -0 -0 nan nan -0 -0 -0 -0 -0 -0 -0 -0 -0 -0 -0 -0 -0 -0 -0 -0 -0 -0 -0 -0 -0 -0 -0 -0 -0 -0 -0 -0 -0
nan nan nan nan nan nan nan nan nan nan nan nan nan nan nan nan nan nan nan nan nan nan nan nan nan nan nan nan nan nan nan nan nan nan nan -0 -0 -0 -0 nan nan nan nan -0 -0 -0 -0 -0 -0 -0 -0 -0 -0 -0 nan nan nan -0 -0 -0 -0 -0 -0 -0 -0 -0 -0 -0 -0 -0 -0 -0 -0 -0 -0 -0 -0 -0 -0 -0 -0 -0 -0 -0 -0 -0
nan nan nan nan nan nan nan nan nan nan nan nan nan nan nan nan nan nan nan nan nan nan nan nan nan nan nan nan nan nan -0 nan nan nan nan -0 -0 -0 -0 nan nan nan nan -0 -0 -0 -0 -0 -0 -0 -0 -0 -0 -0 nan nan nan nan nan -0 -0 -0 -0 nan nan -0 -0 -0 -0 -0 -0 -0 -0 -0 -0 -0 -0 -0 -0 -0 -0 -0 -0 -0 -0 -0
nan nan nan nan nan nan nan nan nan nan nan nan nan nan nan nan nan nan nan nan nan nan nan nan nan nan nan nan nan nan nan -0 -0 -0 -0 -0 -0 -0 -0 -0 -0 -0 -0 -0 -0 nan -0 -0 -0 -0 -0 -0 -0 -0 nan nan nan nan nan -0 -0 -0 -0 nan nan nan -0 -0 -0 -0 -0 -0 -0 -0 -0 -0 -0 -0 -0 -0 -0 -0 -0 -0 -0 -0
nan nan nan nan nan nan nan nan nan nan nan nan nan nan nan nan nan nan nan nan nan nan nan nan nan nan nan nan nan nan nan nan -0 -0 -0 -0 -0 -0 -0 -0 -0 -0 -0 -0 -0 -0 -0 -0 -0 -0 -0 -0 -0 -0 nan nan nan nan -0 -0 -0 -0 nan nan nan nan -0 -0 -0 -0 -0 -0 -0 -0 -0 -0 -0 -0 -0 -0 -0 -0 -0 -0 -0 -0
nan nan nan nan nan nan nan nan nan nan nan nan nan nan nan nan nan nan nan nan nan nan nan nan nan nan nan nan nan nan nan nan nan nan nan -0 -0 -0 -0 -0 -0 -0 -0 -0 -0 -0 -0 -0 -0 -0 -0 -0 -0 -0 nan nan nan nan nan -0 -0 nan -0 nan nan nan -0 -0 -0 -0 -0 -0 -0 -0 -0 -0 -0 -0 -0 -0 -0 -0 -0 -0 -0 -0
nan nan nan nan nan nan nan nan nan nan nan nan nan nan nan nan nan nan nan nan nan nan nan nan nan nan nan nan nan nan nan nan nan nan nan -0 -0 -0 -0 -0 -0 -0 -0 -0 -0 -0 -0 -0 -0 -0 -0 -0 -0 -0 nan nan nan -0 -0 nan nan nan nan nan nan nan -0 -0 -0 -0 -0 -0 -0 -0 -0 -0 -0 -0 -0 -0 -0 -0 -0 -0 -0 -0
nan nan nan nan nan nan nan nan nan nan nan nan nan nan nan nan nan nan nan nan nan nan nan nan nan nan nan nan -0 -0 -0 -0 -0 -0 nan nan -0 -0 -0 -0 -0 -0 -0 -0 -0 -0 -0 -0 -0 -0 -0 -0 -0 -0 nan nan nan nan nan nan nan nan -0 nan nan nan -0 -0 -0 -0 -0 -0 -0 -0 -0 -0 -0 -0 -0 -0 -0 -0 -0 -0 -0 -0
nan nan nan nan nan nan nan nan nan nan nan nan nan nan nan nan nan nan nan nan nan nan nan nan nan nan nan nan -0 -0 -0 -0 -0 -0 -0 nan nan nan -0 -0 -0 -0 -0 -0 -0 -0 -0 -0 -0 nan nan nan nan nan nan nan nan nan nan nan nan nan -0 -0 -0 -0 -0 -0 -0 -0 -0 -0 -0 -0 -0 -0 -0 -0 -0 -0 -0 -0 -0 -0 -0 -0
nan nan nan nan nan nan nan nan nan nan nan nan nan nan nan nan nan nan nan nan nan nan nan nan nan nan nan nan -0 -0 -0 -0 -0 -0 -0 nan nan nan -0 -0 -0 -0 -0 -0 -0 nan nan -0 -0 nan nan nan nan nan nan nan nan nan nan nan nan -0 -0 -0 -0 -0 -0 -0 -0 -0 -0 -0 -0 -0 -0 -0 -0 -0 -0 -0 -0 -0 -0 -0 -0 -0
nan nan nan nan nan nan nan nan nan nan nan nan nan nan nan nan nan nan nan nan nan nan nan nan nan nan nan nan -0 -0 -0 -0 -0 -0 -0 nan -0 -0 -0 -0 -0 -0 -0 -0 -0 nan nan nan nan nan -0 -0 nan nan nan -0 -0 -0 -0 -0 -0 -0 -0 -0 -0 -0 -0 -0 -0 -0 -0 -0 -0 -0 -0 -0 -0 -0 -0 -0 -0 -0 -0 -0 -0 -0
Wind_Speed
2 2 2 3 3 3 3 4 5 4 4 3 3 2 2 2 2 3 3 3 4 4 4 5 5 5 5 6 6 7 7 8 9 10 10 10 10 11 11 12 12 13 13 13 14 14 14 14 14 14 14 15 15 15 15 15 15 15 15 15 15 15 16 16 16 17 17 17 17 17 17 17 17 17 17 18 18 18 18 19 19 19 20 20 20 20
2 2 2 3 3 3 3 4 4 4 3 3 3 2 2 2 2 3 3 3 4 4 4 4 5 6 6 6 6 6 7 8 8 9 9 10 10 11 11 12 12 13 13 13 13 14 14 14 14 14 14 14 14 14 15 15 15 15 15 15 15 15 15 16 16 16 17 17 17 17 17 17 17 17 17 17 18 18 18 19 19 19 20 20 20 20
3 2 2 3 4 3 3 4 4 3 2 2 1 1 1 3 3 3 2 2 3 3 4 4 4 5 6 5 5 5 6 7 8 8 9 9 10 11 11 12 12 13 13 13 13 13 13 13 13 13 14 14 14 14 14 14 14 14 15 15 15 15 15 15 16 16 16 16 16 16 16 17 17 17 17 17 18 18 18 18 19 19 20 20 20 20
3 3 3 2 3 3 2 3 2 2 1 1 1 1 2 3 3 2 2 3 3 3 4 4 5 5 5 5 4 5 6 7 8 8 9 9 10 11 12 12 12 12 13 13 13 13 13 13 13 13 13 13 14 14 14 14 14 14 15 15 15 15 15 15 15 15 16 16 16 16 16 16 16 16 17 17 17 18 18 18 19 19 20 20 20 20
2 2 2 2 2 2 2 2 2 2 1 1 2 2 3 3 3 2 3 3 3 4 4 4 4 5 4 4 4 4 5 6 7 8 9 10 10 11 12 12 12 12 12 12 12 12 12 12 13 13 13 13 13 14 14 14 14 14 15 15 15 15 15 15 15 15 15 15 16 16 16 16 16 16 17 17 17 18 18 18 19 19 19 20 20 20
2 2 2 2 1 1 2 2 2 2 2 3 3 3 3 3 3 3 3 3 3 3 3 3 4 4 4 4 4 4 5 6 7 8 9 10 11 11 11 12 12 12 12 12 12 12 12 12 12 13 13 13 13 13 14 14 14 14 14 15 15 15 15 15 15 15 15 15 15 15 16 16 16 16 17 17 17 17 18 18 18 19 19 20 20 20
2 2 2 1 1 1 1 1 2 2 2 3 3 3 3 3 3 3 3 3 3 3 3 3 4 4 4 4 4 4 5 6 7 8 9 10 10 11 11 11 11 12 12 12 12 12 12 12 12 12 13 13 13 13 14 14 14 14 14 14 14 14 14 14 15 15 15 15 15 15 15 16 16 16 16 17 17 17 17 18 18 19 19 19 20 20
2 2 2 2 2 1 1 2 2 2 2 2 2 2 3 3 3 3 3 3 3 2 3 3 3 3 4 4 4 4 4 4 5 6 7 8 9 10 10 11 11 12 12 12 12 12 12 12 12 13 13 13 13 13 13 14 14 14 14 14 14 14 14 14 14 15 15 15 15 15 15 16 16 16 16 16 17 17 17 18 18 18 19 19 19 20
3 2 2 2 2 2 2 2 2 2 2 2 2 2 2 2 2 2 2 3 2 2 2 2 3 3 3 3 3 3 3 4 5 5 6 7 7 8 9 10 11 11 11 11 12 12 12 12 12 12 13 13 13 13 13 13 13 14 13 13 14 14 14 14 14 14 15 15 15 15 15 15 16 16 16 16 16 17 17 17 18 18 18 19 19 19
3 3 2 2 2 2 2 2 2 2 2 1 2 2 2 3 3 2 2 2 1 1 1 2 3 3 3 3 3 3 3 4 6 7 8 8 8 9 9 9 9 10 11 11 11 11 12 12 12 12 12 12 13 13 13 13 13 13 13 13 13 13 14 14 14 14 15 15 15 15 15 15 16 16 16 16 17 17 17 17 17 18 18 18 18 19
2 2 2 2 1 1 1 1 2 2 2 2 2 2 2 2 2 3 3 3 2 1 1 2 2 3 3 3 3 3 3 4 5 6 7 8 9 9 9 9 9 9 10 10 10 10 10 11 11 11 11 12 12 12 12 12 12 13 13 13 13 13 14 14 14 14 15 15 15 15 15 15 16 16 16 16 17 17 17 17 17 17 17 18 18 18
2 2 2 2 2 1 1 1 2 2 2 2 2 3 2 1 1 2 3 3 3 3 2 2 2 3 3 3 3 3 3 4 5 5 5 6 6 6 6 6 7 7 7 8 8 8 9 9 10 10 10 10 11 11 11 11 12 12 13 13 13 14 14 14 14 14 15 15 15 15 15 15 16 16 16 17 17 17 17 17 17 17 17 17 17 17
2 2 1 2 2 2 2 2 2 2 3 2 2 2 1 1 0 1 2 3 3 3 3 3 3 3 3 2 2 2 3 4 5 5 5 4 4 4 4 4 4 4 5 5 5 6 7 8 8 9 9 9 10 10 11 11 12 13 13 13 14 14 14 14 14 14 15 15 15 15 15 15 16 16 16 16 17 17 17 17 17 17 17 17 17 17
2 2 2 2 2 2 2 2 3 3 2 2 1 0 1 1 1 1 2 2 2 2 3 3 4 3 2 2 1 2 3 4 5 5 5 4 4 4 4 4 4 4 4 4 4 5 5 6 6 7 8 8 9 10 10 11 12 13 13 13 14 14 14 14 14 14 15 15 15 15 15 15 16 16 16 16 16 16 16 16 16 16 16 16 16 16
3 3 3 3 2 2 2 2 2 2 1 1 1 1 1 0 1 1 2 2 2 3 3 4 4 3 2 1 1 1 3 4 4 5 5 5 5 4 4 4 4 4 4 4 4 5 5 5 5 5 6 7 8 9 11 12 13 13 13 14 14 14 14 14 14 14 15 15 15 15 15 15 15 15 16 16 16 16 16 16 16 16 16 16 16 16
3 3 3 2 2 2 2 2 2 1 2 2 2 1 0 0 1 1 2 2 3 3 3 3 4 3 1 2 2 1 2 3 4 5 6 5 5 4 4 4 4 4 4 4 5 5 4 4 5 5 6 8 9 11 12 12 13 13 13 14 14 14 14 14 14 15 15 15 15 15 15 15 15 15 15 15 15 15 16 16 15 15 15 15 15 15
2 2 2 2 2 2 2 2 2 1 2 2 2 1 0 0 1 1 2 2 2 2 2 3 3 3 2 0 2 2 1 3 4 5 6 6 5 4 3 3 4 4 4 5 5 5 4 4 4 5 5 8 10 12 12 13 13 13 13 14 14 14 14 14 15 15 15 15 15 15 15 15 15 14 14 14 15 15 15 15 15 15 15 15 15 15
2 2 2 2 2 2 2 2 2 2 2 2 2 1 1 0 0 1 1 2 2 2 2 2 2 2 3 3 2 2 3 4 4 5 5 6 5 4 3 3 3 4 5 5 5 5 4 4 4 5 6 9 11 12 12 13 13 13 13 13 14 14 14 14 15 15 15 15 15 15 15 14 14 14 14 14 14 14 14 14 14 14 14 14 14 15
2 2 2 2 2 2 2 2 2 2 2 2 2 1 1 1 0 0 1 1 2 2 2 2 2 2 3 3 3 4 4 4 4 5 5 6 5 4 3 3 3 4 5 5 5 5 4 4 5 6 8 10 11 11 12 12 13 13 13 13 14 14 14 14 15 15 15 15 14 14 14 14 14 13 13 13 13 14 14 14 14 14 14 14 14 14
2 2 2 2 2 2 2 2 2 2 2 2 2 1 1 1 1 1 1 1 1 2 2 2 3 3 3 4 4 4 4 4 4 4 5 5 5 5 3 3 3 4 5 5 5 5 5 5 5 7 8 9 10 10 11 12 12 13 13 13 14 14 14 14 14 14 14 14 14 13 13 13 13 13 13 13 13 13 13 13 14 14 14 14 14 13
3 2 2 2 2 2 2 2 2 2 2 2 2 1 1 0 1 1 1 1 1 2 2 2 3 3 3 4 5 5 4 4 4 4 4 4 4 4 2 2 3 4 5 5 4 5 5 6 6 6 7 8 9 9 10 11 11 12 13 13 14 14 14 14 14 14 13 13 13 13 13 13 12 12 12 12 12 12 13 13 13 13 13 13 13 12
3 3 3 3 3 2 2 3 3 3 3 2 1 1 0 0 1 1 1 1 2 2 3 3 4 4 4 5 5 5 4 3 3 3 3 4 5 4 3 3 3 4 5 5 5 5 6 6 6 6 7 8 8 9 9 10 11 12 13 14 14 14 14 13 13 13 13 13 13 12 12 12 12 12 12 12 12 12 12 12 13 13 13 12 11 11
4 4 4 4 4 4 3 4 3 3 3 2 1 0 1 1 1 1 1 2 2 3 3 4 5 5 5 5 5 5 4 2 2 2 3 4 4 4 3 3 4 5 5 5 5 5 6 6 6 7 7 7 7 7 8 9 11 12 13 13 14 13 13 13 13 13 12 12 12 12 12 12 12 12 12 12 12 12 12 12 12 13 12 12 11 11
5 5 5 4 4 4 4 3 3 2 2 1 1 1 1 1 1 1 1 1 2 2 3 4 5 5 5 5 5 4 2 1 1 1 2 4 4 4 4 4 5 5 5 5 5 6 6 6 6 6 6 6 6 6 7 9 11 12 13 13 13 13 13 13 12 12 12 12 12 12 12 12 12 12 12 12 12 12 12 12 12 12 12 12 11 11
6 5 4 4 4 4 4 3 3 3 2 1 1 1 1 1 1 0 0 1 2 2 3 4 4 4 4 3 2 1 2 2 1 1 2 3 4 5 4 4 5 5 5 5 5 6 6 6 6 6 5 5 5 6 7 9 11 12 12 13 13 12 12 12 12 12 12 12 12 11 11 11 12 12 12 12 11 11 12 12 12 12 12 11 11 11
7 7 7 7 7 6 6 6 5 5 3 2 1 1 1 1 1 1 2 2 2 2 3 4 4 4 3 3 2 1 2 3 2 1 2 3 4 5 5 4 4 5 5 5 5 6 6 6 6 6 5 4 5 6 8 10 11 12 12 12 12 12 12 12 12 12 12 11 11 11 11 11 11 12 12 12 12 11 12 12 12 12 11 10 10 9
12 11 11 10 9 8 7 7 7 6 5 4 3 2 1 0 1 2 2 1 1 2 3 3 4 4 3 3 3 2 0 2 2 1 1 2 4 4 4 4 4 5 6 5 5 6 7 6 6 5 4 4 5 6 9 10 11 11 11 11 11 11 11 12 12 12 11 11 11 11 11 11 11 12 12 12 12 12 12 12 12 11 10 9 8 7
13 13 12 11 10 9 8 8 7 6 5 5 4 3 2 0 1 2 2 1 2 2 3 3 3 3 3 3 3 3 2 1 2 2 1 2 3 4 4 4 4 5 6 5 5 6 7 6 4 3 3 4 5 6 9 10 10 11 10 11 11 11 11 11 11 11 11 11 11 11 11 11 11 11 12 12 12 12 12 12 12 11 9 7 5 4
12 12 11 11 10 9 8 8 7 6 5 4 4 3 2 0 1 1 1 1 2 2 3 3 3 3 3 4 4 3 2 1 2 2 1 2 3 4 4 4 4 5 5 5 5 5 5 4 2 2 2 4 5 6 7 9 9 9 9 10 10 10 10 11 11 11 11 11 11 11 11 11 11 11 11 11 12 12 12 13 12 10 7 5 4 4
8 8 8 8 8 7 7 6 5 4 4 4 3 2 2 1 0 1 1 1 1 2 3 3 3 3 3 4 4 3 1 2 2 1 1 2 3 4 4 4 4 4 5 5 4 4 3 2 2 2 4 5 6 6 7 7 7 6 6 8 8 9 10 10 11 11 11 11 11 11 12 12 11 11 11 11 12 12 13 13 11 9 5 4 4 4
4 5 5 5 5 4 4 3 2 2 2 2 2 2 1 1 0 0 0 1 1 2 3 3 3 3 3 3 3 2 1 1 2 1 1 2 3 4 4 4 4 4 4 4 4 4 4 3 2 3 5 6 7 6 6 6 6 6 5 6 6 7 9 10 10 10 10 10 11 11 12 11 11 11 11 12 12 12 13 13 11 8 5 5 4 4
3 3 3 3 2 2 1 0 0 0 1 1 1 1 0 0 1 1 1 1 1 2 2 3 3 3 3 3 3 3 2 1 2 2 3 3 3 3 4 4 4 4 3 3 3 4 4 4 3 4 5 6 6 6 6 6 6 5 5 6 5 6 8 9 9 9 8 9 10 11 11 11 11 11 11 12 12 12 13 13 12 9 6 5 5 4
3 2 2 1 0 1 1 1 1 1 1 0 0 0 0 0 1 1 1 1 1 2 2 3 3 3 4 4 4 3 3 2 3 4 4 3 3 3 3 4 4 4 4 3 3 3 4 4 4 5 5 5 6 6 6 6 5 5 6 6 6 6 7 7 7 7 7 8 8 9 10 10 10 11 11 11 12 12 13 13 12 10 7 5 5 5
2 2 1 1 2 2 2 2 1 1 1 1 0 0 0 1 1 1 1 1 2 2 2 3 3 3 4 4 4 3 3 2 3 5 5 3 3 3 4 4 4 4 4 3 3 4 4 5 5 5 5 5 5 5 5 5 5 6 6 6 6 6 6 6 6 6 6 6 6 6 7 8 8 9 10 11 11 12 12 12 12 10 9 6 5 5
2 1 2 2 2 2 2 1 1 1 1 0 0 0 1 1 1 1 1 2 2 2 2 3 3 3 3 3 4 4 3 3 4 5 5 3 3 3 3 3 3 4 4 4 4 4 4 5 6 6 6 5 4 4 4 5 5 6 6 6 6 6 6 6 6 6 6 6 6 6 6 6 6 7 8 9 11 12 12 12 11 10 9 8 7 5
2 2 2 2 2 1 1 1 1 1 1 0 0 0 1 1 1 2 2 2 2 2 3 3 3 3 4 4 4 4 5 4 5 5 5 4 3 3 3 3 3 4 4 4 4 4 4 5 6 6 7 6 5 4 4 5 6 6 6 6 6 6 6 6 6 6 6 5 5 5 5 6 6 6 7 9 11 11 12 11 10 9 9 8 7 6
2 2 2 2 1 1 1 1 1 1 1 1 1 1 1 1 2 2 2 2 2 3 3 3 4 4 5 5 5 5 5 5 5 6 5 4 3 3 3 3 3 3 4 4 4 4 4 5 5 6 5 5 5 4 5 5 6 6 6 6 6 6 6 6 6 5 5 6 6 6 6 6 6 6 6 9 10 10 10 10 9 8 8 8 7 7
2 2 2 2 1 1 1 1 1 1 1 1 1 1 2 2 2 2 2 2 3 3 3 3 4 4 6 6 7 7 7 7 7 7 7 5 4 3 3 3 3 3 3 4 4 5 4 5 5 5 5 4 5 5 6 6 6 6 6 6 6 6 5 6 6 6 5 6 6 6 6 6 6 6 6 7 7 7 7 6 7 7 7 7 7 6
2 2 2 1 1 1 1 1 1 1 1 1 1 2 2 3 3 3 3 3 3 3 4 4 4 4 5 7 8 8 8 8 8 8 7 6 4 4 3 3 4 4 4 4 4 5 5 4 5 5 5 5 5 6 6 6 6 6 6 6 5 5 5 6 6 6 5 5 6 6 6 6 5 5 5 5 5 5 5 5 5 6 6 5 5 5
2 2 1 1 0 0 1 1 1 1 1 1 2 2 2 2 2 2 3 3 3 3 4 4 4 4 5 5 6 6 7 6 6 6 5 5 4 3 3 3 4 4 4 4 4 5 5 5 5 5 6 5 5 5 5 5 6 6 7 5 4 4 6 6 6 5 5 5 5 5 5 5 5 5 5 5 5 5 5 5 5 5 5 5 4 4
2 2 1 1 0 1 1 1 1 1 1 1 1 2 2 2 2 2 2 2 2 2 2 3 3 4 4 4 5 5 5 5 5 5 4 5 5 4 4 4 4 4 4 5 5 5 5 6 6 6 5 6 6 6 6 6 7 7 7 6 5 5 6 6 6 5 5 5 5 5 6 5 5 5 5 5 5 5 5 4 4 4 4 4 4 4
1 1 1 1 1 1 1 1 1 1 1 1 1 1 2 2 2 3 3 2 2 2 2 2 3 3 3 3 4 4 4 4 5 5 5 5 6 5 5 4 4 4 4 5 5 6 6 6 6 5 5 5 5 6 6 6 7 7 6 5 6 6 6 5 5 5 5 5 5 5 6 5 5 5 5 5 5 5 4 4 4 4 4 3 3 3
1 1 1 1 1 1 1 1 1 1 1 1 1 1 2 2 2 2 3 3 3 2 2 2 3 3 3 3 2 2 2 3 4 5 5 6 6 6 6 6 5 5 5 4 5 5 6 6 5 5 5 5 5 5 6 6 6 6 6 6 6 5 4 4 4 5 5 5 5 5 5 5 4 4 5 5 5 4 4 4 4 4 3 3 3 3
1 1 1 1 1 0 1 1 1 1 1 1 1 1 1 2 2 2 3 2 3 3 2 2 3 3 3 3 3 3 2 2 3 4 4 5 6 6 6 7 7 6 6 5 5 5 5 5 5 5 5 4 5 5 6 6 6 6 5 6 5 5 4 4 5 6 6 5 5 5 5 4 4 4 4 4 4 4 3 3 3 3 3 3 3 3
1 1 1 1 1 1 1 1 1 1 1 1 1 1 1 2 2 2 2 2 3 3 3 3 3 3 2 3 3 3 3 3 3 2 2 3 4 5 5 5 6 6 6 6 5 5 5 5 5 5 4 4 5 5 6 6 6 6 6 6 5 5 5 5 5 5 5 5 5 5 5 5 4 4 4 4 4 3 3 3 3 3 3 2 2 3
1 1 1 1 1 1 1 1 1 1 1 1 1 1 1 2 2 2 2 2 3 3 3 3 3 3 3 3 3 3 3 3 3 3 3 3 3 3 3 4 4 4 5 5 6 6 6 6 5 5 4 4 5 5 6 6 6 5 5 5 5 5 5 5 5 5 5 5 5 5 5 5 4 4 4 4 4 4 3 3 3 3 3 2 2 2
1 1 1 1 1 1 1 1 1 1 1 1 1 1 1 2 2 2 2 3 3 3 3 3 3 3 3 3 3 4 4 4 4 4 4 4 4 4 4 4 4 5 5 5 6 7 7 7 7 6 5 5 5 5 5 5 5 5 5 5 5 5 4 4 5 5 5 5 5 5 5 5 4 4 4 4 4 3 3 3 3 2 2 2 2 2
2 2 2 1 1 1 1 1 1 1 1 1 1 1 1 2 2 3 3 3 3 3 3 3 3 3 3 3 4 4 4 4 4 4 4 4 4 4 4 4 4 5 5 6 6 7 7 8 8 7 6 5 5 4 5 5 5 5 5 5 5 5 5 5 5 4 4 4 4 5 4 4 3 3 4 4 3 3 3 3 2 2 2 2 2 2
2 2 2 2 2 1 2 1 1 2 2 2 2 2 2 2 2 3 2 3 3 3 3 3 3 3 3 3 4 4 4 4 4 4 4 4 4 4 5 5 5 4 5 5 5 6 6 7 7 7 7 6 5 5 5 5 5 5 5 5 5 4 5 4 4 4 4 4 4 4 4 3 3 3 3 3 3 3 3 3 2 2 2 2 2 2
2 2 2 2 2 2 2 2 2 2 2 2 2 2 2 2 2 2 2 2 2 2 2 3 3 3 3 4 4 4 4 4 4 4 4 4 5 5 5 5 5 5 5 5 4 4 4 4 4 5 7 7 6 5 5 5 5 5 5 4 4 4 4 4 4 4 4 4 4 4 4 3 3 2 3 3 3 3 3 3 2 2 2 2 1 1
2 2 2 2 1 1 1 1 2 2 2 3 3 3 3 2 2 2 2 2 2 2 2 3 3 3 3 4 4 4 4 4 4 4 5 4 5 5 6 6 6 6 5 5 5 5 4 4 3 2 3 6 6 6 4 4 5 5 5 4 4 4 4 4 4 4 4 4 4 3 3 3 2 2 2 2 3 3 3 3 3 2 2 2 2 2
Wind_Direction
107 110 124 154 166 178 192 200 206 208 198 181 176 183 186 206 230 244 245 254 267 276 281 282 285 287 286 285 287 290 293 295 296 297 298 301 303 306 308 308 307 307 306 305 304 304 303 303 302 302 301 301 302 302 303 304 304 305 305 306 306 307 307 307 307 307 306 305 305 304 304 304 305 306 307 309 310 311 311 310 309 308 306 305 305 305
125 121 146 177 185 188 185 195 210 221 214 194 185 188 205 227 239 246 247 256 265 274 279 283 286 289 289 288 289 290 292 293 295 297 299 302 305 307 308 308 307 306 306 305 304 303 303 303 302 302 302 302 303 303 304 304 304 305 305 306 307 307 307 308 307 306 306 305 304 304 304 305 306 307 309 309 310 310 309 308 307 306 305 306 306 306
148 152 166 185 195 199 188 184 198 220 240 206 175 172 223 244 248 250 254 264 270 274 277 281 285 288 289 289 288 288 290 292 294 296 299 303 305 306 307 307 307 306 305 305 304 303 303 303 303 303 303 304 304 304 304 305 305 305 306 307 307 308 308 308 307 306 305 304 303 304 304 305 307 308 309 309 308 308 308 307 307 307 307 307 307 307
156 163 164 174 194 203 194 172 174 189 252 221 176 187 239 254 259 266 274 281 282 282 281 285 287 289 289 288 287 287 288 290 293 295 299 301 302 303 304 305 305 305 305 304 304 303 303 303 303 304 304 305 305 306 305 305 306 307 307 308 309 308 308 307 306 305 304 303 303 303 304 305 307 307 308 307 307 308 308 308 308 308 308 308 308 308
156 155 151 159 178 190 175 149 149 160 195 227 224 224 237 252 263 273 277 279 282 285 290 292 291 290 288 287 285 285 286 288 290 293 295 297 298 299 300 302 303 304 304 304 303 303 303 303 304 305 306 306 307 307 307 307 308 308 309 310 309 309 308 306 305 304 303 302 302 303 304 305 306 307 307 307 307 308 309 309 309 309 309 309 309 309
137 125 124 146 156 153 141 153 164 175 193 218 227 232 235 245 255 264 268 272 278 285 292 292 290 287 284 282 281 281 281 282 284 286 289 291 293 295 297 300 302 303 304 304 303 303 303 304 305 306 307 308 308 308 308 309 310 310 311 311 310 308 307 305 304 303 303 302 303 304 305 306 306 306 306 307 308 309 309 309 309 309 310 310 310 310
117 110 111 127 120 113 122 165 183 198 213 217 219 221 224 230 239 248 257 266 276 284 288 287 286 284 281 279 276 275 274 275 277 280 283 286 289 293 296 300 302 303 304 304 303 303 304 305 306 307 308 308 309 309 310 311 312 312 312 311 309 307 306 305 304 303 303 303 304 305 306 306 306 306 306 307 308 309 309 309 310 310 310 310 310 310
128 134 144 148 141 138 153 176 190 208 233 237 234 228 223 223 227 234 242 246 255 268 283 289 289 287 285 285 281 276 276 279 282 283 285 288 291 294 298 301 303 303 304 303 303 303 304 305 307 308 309 309 310 311 312 313 313 313 312 310 308 307 305 304 304 304 304 305 306 307 307 307 306 306 307 307 308 308 309 309 310 310 310 310 311 311
135 144 155 162 166 169 178 176 175 185 222 248 259 264 264 262 257 249 242 234 232 245 279 296 299 298 297 296 291 287 287 292 294 295 294 294 295 297 299 301 302 302 302 302 301 301 303 304 306 307 309 310 311 312 313 314 314 313 311 309 307 306 305 305 305 305 306 307 307 307 307 307 307 307 307 308 308 309 309 310 310 310 311 311 311 312
124 134 139 156 174 191 202 164 148 149 187 233 263 281 289 294 297 296 287 270 248 238 276 296 301 304 305 300 295 292 295 295 293 291 288 286 286 288 291 293 296 298 298 298 298 298 299 301 303 306 307 309 311 313 314 314 313 312 310 308 306 306 305 306 306 307 308 308 308 308 308 307 307 307 308 308 309 309 310 310 311 311 312 312 312 313
116 123 125 141 164 208 246 126 117 127 165 202 221 234 247 272 295 304 305 302 303 303 300 296 298 301 303 301 301 302 306 301 296 290 284 281 281 281 283 285 288 290 293 293 293 293 294 297 300 303 306 308 311 312 314 313 312 311 309 307 307 307 307 307 308 308 309 309 309 309 308 308 308 308 309 309 310 311 311 312 312 312 312 313 313 313
122 125 129 149 161 174 194 145 132 143 178 203 211 210 198 192 251 303 304 305 308 312 311 302 294 289 288 293 301 309 312 305 302 298 293 287 284 282 283 285 287 289 292 291 289 289 290 293 297 301 304 307 310 312 313 312 311 310 309 308 308 308 309 309 310 310 310 310 310 310 310 309 309 309 310 311 312 312 312 313 313 313 313 313 314 314
125 133 153 167 172 173 176 172 172 178 194 209 220 220 176 123 65 316 297 295 299 305 309 301 292 279 268 270 287 305 310 304 302 301 300 297 295 295 294 295 297 299 299 295 292 290 292 296 298 301 304 307 310 312 313 313 312 312 311 311 311 311 311 312 312 313 312 313 312 312 311 311 311 311 312 313 313 313 313 313 313 313 314 314 315 315
142 155 174 178 178 178 178 184 189 192 193 199 206 11 42 39 356 304 289 289 296 302 303 296 289 280 260 239 248 290 304 303 303 303 303 302 303 304 302 301 302 304 305 300 298 298 303 303 303 303 305 309 312 315 317 316 315 314 314 314 314 314 314 314 315 315 315 315 315 314 314 313 313 313 314 314 314 314 314 314 314 314 314 315 316 316
161 173 184 185 181 175 175 186 193 191 166 135 100 72 52 351 294 292 298 305 311 312 304 297 291 284 254 187 179 265 297 303 306 308 308 306 305 304 303 301 301 303 304 301 301 302 304 302 303 306 310 316 320 322 322 318 317 316 316 316 317 317 317 318 318 318 318 318 318 317 316 316 315 315 315 315 315 315 314 314 314 315 316 316 316 316
173 183 190 185 173 162 158 170 174 162 126 111 100 95 91 297 324 332 332 324 320 315 311 312 310 305 270 135 143 194 284 304 310 311 310 307 305 304 304 303 302 304 305 304 303 303 302 300 303 309 315 320 322 322 320 318 318 318 319 319 320 320 321 321 321 321 321 321 320 319 318 318 317 316 315 315 315 315 314 315 315 316 317 317 316 315
177 187 191 178 161 146 138 147 148 137 118 115 114 113 105 355 358 358 348 331 320 315 318 325 326 324 320 78 155 173 299 317 315 310 308 305 304 304 305 303 302 304 306 304 304 304 304 304 307 312 316 320 320 320 319 319 320 321 322 322 323 323 324 324 324 324 323 322 321 320 319 319 317 316 315 315 315 315 315 315 316 317 317 316 315 312
177 184 184 167 149 137 131 136 135 129 125 127 131 139 165 142 19 10 349 324 314 315 321 322 320 317 313 313 323 355 6 338 321 310 306 302 301 302 303 300 299 300 303 302 302 303 305 308 310 312 313 316 317 318 319 321 322 323 324 325 325 325 326 326 325 325 324 323 321 320 320 319 318 317 316 315 315 315 316 317 317 317 317 315 313 311
172 174 169 153 139 128 126 131 133 135 139 138 142 151 169 157 126 67 294 291 300 309 317 313 306 299 296 294 311 336 355 336 320 309 304 302 302 303 306 303 300 300 301 301 302 304 307 308 307 307 309 312 314 317 320 322 323 325 326 326 326 327 327 326 325 325 324 322 321 320 320 319 319 318 317 316 317 317 319 319 319 318 316 314 312 312
157 155 152 137 126 122 124 126 130 132 131 127 129 137 150 155 184 214 232 263 287 302 304 296 292 290 289 293 305 322 338 331 318 306 300 301 301 302 305 306 303 302 301 300 304 309 313 312 309 307 308 310 313 316 320 322 324 325 326 327 327 327 327 326 325 325 324 322 322 321 321 321 320 320 319 319 319 320 321 320 319 317 315 313 315 318
136 130 117 112 113 117 118 118 118 118 115 115 120 131 151 197 225 239 258 295 304 301 293 287 286 290 297 300 306 314 326 322 315 306 303 302 299 298 303 307 305 302 300 300 307 315 320 316 311 307 305 308 311 315 319 322 324 326 327 327 327 328 327 327 326 325 324 323 323 322 322 322 322 322 321 321 322 322 322 321 319 316 315 317 322 330
115 109 98 93 92 96 101 108 111 113 115 115 120 136 176 259 284 308 339 329 314 302 294 290 291 294 296 292 291 294 301 301 304 306 306 301 297 298 310 316 310 304 301 305 314 322 321 314 308 303 302 305 309 313 318 322 324 326 327 327 328 328 328 328 328 327 325 325 324 324 324 325 325 325 325 324 324 324 323 320 318 316 316 324 335 347
94 96 93 86 83 86 95 104 109 112 113 116 113 48 15 1 351 344 341 324 310 300 293 290 288 286 279 273 270 269 267 265 280 297 297 293 295 301 319 321 314 306 302 309 318 320 316 309 304 302 301 304 308 313 319 322 324 326 327 328 329 330 330 330 330 329 327 326 326 326 327 328 328 328 328 327 327 325 323 320 318 318 321 332 345 355
88 92 91 87 86 88 94 100 104 104 96 88 60 36 33 33 29 13 340 314 294 283 281 280 278 272 261 253 248 241 215 185 201 266 282 285 293 303 318 318 312 304 302 310 315 315 310 304 301 299 297 302 308 315 319 321 322 324 326 328 330 331 332 332 332 330 329 329 329 329 330 331 331 331 330 330 328 326 323 320 319 321 326 338 348 353
91 92 92 93 96 99 104 109 111 109 99 94 86 78 76 74 76 86 242 243 250 258 267 274 278 279 275 272 264 226 135 129 151 252 280 287 294 302 311 313 310 305 304 309 312 310 304 299 296 295 294 301 311 317 318 319 320 323 326 328 331 332 333 333 333 332 331 331 331 332 333 334 333 332 332 331 329 327 323 323 324 327 333 341 347 350
99 100 100 98 99 101 107 112 116 118 121 124 122 119 114 130 183 214 218 226 246 274 289 292 295 299 306 310 313 322 117 125 139 235 287 295 299 302 305 309 311 309 307 309 309 305 299 295 293 292 295 306 315 318 317 318 320 323 326 328 331 333 334 334 334 334 333 333 334 335 336 335 335 334 334 333 331 329 327 328 330 334 339 344 346 345
93 91 89 85 83 83 87 94 101 110 120 125 125 124 122 191 244 249 247 260 296 310 308 307 307 309 312 311 310 312 322 120 121 109 316 302 296 296 300 311 315 314 310 308 306 302 296 290 287 287 297 314 319 318 318 319 321 323 326 328 331 332 334 335 335 335 335 336 336 337 337 337 337 336 336 334 333 332 331 333 337 340 344 348 346 340
78 76 73 69 65 63 63 69 76 87 99 108 114 117 120 218 271 279 293 325 327 311 298 302 306 310 312 312 309 304 300 77 95 85 10 302 289 291 302 315 320 318 313 308 304 299 291 284 282 288 309 320 319 318 319 322 323 325 326 329 331 332 334 335 336 336 337 337 338 339 340 340 340 339 338 337 336 336 337 339 342 345 349 349 342 330
67 66 65 61 56 51 49 50 53 58 66 76 86 92 95 42 286 291 312 331 317 299 292 297 302 306 307 305 300 293 281 94 95 88 357 291 285 290 308 320 324 323 319 313 306 298 288 287 297 322 330 324 321 320 321 324 325 326 328 329 331 332 334 336 336 337 338 339 340 342 343 343 343 342 341 340 339 340 341 344 346 349 354 348 337 326
60 58 57 53 49 44 41 38 36 37 42 53 62 71 80 67 313 300 322 312 298 291 292 297 301 303 306 306 300 292 256 115 114 121 286 290 293 301 318 322 325 327 330 322 316 309 302 309 334 345 337 327 324 322 322 324 326 328 330 330 331 332 334 335 336 337 339 341 342 344 345 345 345 345 343 342 343 344 345 347 350 353 355 343 334 329
62 58 54 49 44 39 35 29 23 19 26 38 48 59 76 88 105 278 284 272 275 282 289 293 296 299 302 305 303 300 312 102 117 135 302 297 301 308 321 320 323 329 338 333 325 318 315 318 333 343 337 328 323 321 321 322 325 329 332 331 330 331 334 335 336 337 340 342 344 345 346 346 346 345 344 344 345 346 347 349 351 353 350 340 335 335
69 64 60 54 47 38 24 356 326 327 1 24 34 35 68 123 162 188 212 243 262 272 279 282 285 285 284 282 283 290 309 8 38 25 352 319 306 307 318 317 320 326 336 334 323 312 309 312 321 330 331 323 320 319 319 322 326 330 333 331 328 329 333 334 336 338 341 343 344 345 345 345 345 345 345 345 346 347 348 349 350 350 347 341 337 336
77 74 74 81 116 207 222 220 219 214 212 219 241 268 262 233 232 224 215 229 247 259 266 272 275 277 276 273 273 278 293 324 5 15 4 337 314 308 317 317 317 319 324 321 308 297 293 301 309 316 320 318 317 317 317 322 329 333 334 331 328 328 332 334 336 339 342 343 343 343 344 343 344 344 344 346 346 347 347 348 348 348 346 342 338 336
92 101 132 185 208 215 215 213 210 207 205 220 242 282 301 288 282 272 259 240 239 244 252 261 269 275 279 280 279 280 286 319 11 20 8 346 321 310 315 313 313 314 319 315 309 301 293 298 305 310 313 315 315 314 316 325 332 336 334 330 328 328 331 335 337 340 342 342 342 342 342 341 342 343 345 345 345 345 345 345 346 346 346 344 340 336
130 159 192 209 216 220 220 220 219 223 228 232 274 320 315 307 298 288 277 262 250 246 246 252 259 267 275 282 285 288 291 323 358 7 359 344 323 308 306 304 308 315 318 314 312 309 303 304 308 310 311 312 312 313 320 331 334 334 331 329 329 330 333 335 337 339 340 340 340 340 339 338 340 342 344 344 343 342 342 343 344 345 346 344 342 338
175 194 206 213 224 233 237 235 239 248 253 260 290 305 302 297 289 284 279 272 267 262 257 255 255 257 263 270 276 282 290 309 328 337 335 324 310 299 294 299 310 316 314 311 310 309 306 308 309 310 310 310 312 318 328 333 332 329 327 329 331 332 334 336 338 338 338 338 338 337 338 337 338 340 341 341 340 340 340 341 344 345 346 344 341 337
194 204 208 210 219 235 247 244 246 258 284 301 309 304 299 291 288 288 285 279 276 273 271 265 260 255 253 258 264 272 282 294 302 305 301 296 289 284 282 291 300 305 305 305 306 308 307 307 308 309 309 311 315 321 327 328 326 325 327 331 333 334 335 338 339 339 336 336 335 335 336 337 336 337 337 338 339 339 339 341 343 345 346 343 339 334
200 206 207 209 215 227 244 255 272 301 333 329 321 309 303 295 291 289 287 281 274 270 269 267 263 259 256 259 261 265 270 274 277 279 280 277 273 271 274 281 287 290 293 296 300 303 303 304 306 309 310 312 314 317 319 320 321 323 327 330 332 332 335 339 339 337 334 333 333 334 335 335 335 335 335 338 339 340 339 341 344 345 344 340 335 331
203 206 207 211 219 235 274 302 328 340 345 321 309 303 301 297 293 289 284 276 267 260 258 261 264 262 257 256 258 259 262 264 267 269 271 269 266 265 269 276 283 288 289 290 290 290 290 293 298 304 308 310 312 312 312 314 316 320 324 327 329 332 337 337 336 333 330 330 330 332 334 334 334 334 335 337 338 338 338 339 342 344 343 339 334 330
199 203 203 204 214 331 337 333 335 339 327 304 298 299 301 305 303 296 281 269 260 256 258 261 263 262 257 252 251 253 256 260 264 266 267 262 257 254 257 265 274 282 286 284 282 281 281 283 286 290 295 300 304 307 309 310 314 319 324 326 329 333 336 332 328 326 326 328 330 331 332 333 333 334 335 336 335 336 336 336 339 340 340 337 335 332
195 192 177 144 65 14 350 335 327 318 298 293 295 302 312 324 322 313 299 283 272 268 272 273 273 270 263 253 246 243 241 244 249 253 253 247 240 235 239 250 260 269 275 278 279 279 279 279 281 283 287 292 296 299 301 305 310 316 322 323 322 321 323 322 322 323 326 328 329 329 329 330 332 334 334 333 332 332 331 330 331 333 335 334 334 333
186 164 107 72 50 18 341 319 309 301 297 297 305 318 337 342 334 325 318 316 315 315 315 309 303 296 286 269 248 233 224 227 232 238 242 239 233 228 229 238 248 258 266 273 275 276 275 276 278 282 286 290 294 298 300 303 309 314 319 316 315 314 313 318 323 328 329 327 326 326 328 330 332 334 332 329 328 327 326 325 326 328 331 331 330 329
137 90 65 54 38 356 314 304 312 319 324 321 328 340 353 345 329 318 314 318 324 327 326 320 311 304 298 295 287 265 228 219 224 231 236 235 233 231 231 236 242 250 258 266 272 275 277 277 279 279 280 284 288 292 296 301 306 310 311 311 314 316 317 323 328 329 326 323 322 324 327 330 332 330 326 323 323 324 324 322 323 325 329 326 323 321
98 83 71 60 43 8 333 343 351 352 348 343 340 342 348 335 322 314 314 320 325 327 327 319 307 298 298 312 324 329 324 282 243 232 234 236 232 229 231 233 236 240 245 254 265 273 279 280 279 278 278 280 283 286 290 295 300 303 304 306 309 310 309 312 316 318 317 318 319 322 326 328 328 325 321 319 320 323 326 325 325 326 327 323 319 317
93 90 87 70 50 28 13 14 8 358 352 343 334 333 335 330 321 318 319 324 327 328 329 323 313 309 316 335 341 341 335 334 327 301 262 254 247 241 239 240 242 244 245 251 259 268 277 281 283 284 285 283 281 281 284 288 293 296 297 301 302 301 297 299 303 306 308 311 314 318 323 325 325 322 319 321 323 327 330 328 326 327 329 329 325 321
105 94 83 65 44 29 24 17 5 349 335 323 321 328 338 333 325 320 325 330 331 330 328 323 321 324 334 339 341 339 337 338 339 337 334 325 312 297 280 275 272 270 265 263 263 266 269 274 279 283 286 284 281 279 279 283 288 292 296 299 301 301 298 298 300 301 303 306 310 316 322 324 324 322 322 324 327 330 331 328 327 329 332 333 330 327
88 78 68 58 45 34 26 12 353 334 321 317 324 337 349 344 336 333 339 341 337 330 325 325 328 333 338 339 340 340 338 338 337 336 335 332 328 322 315 305 297 290 283 278 273 270 267 267 269 273 277 279 282 284 285 287 290 294 297 300 301 302 301 301 302 302 302 304 309 316 322 324 325 325 326 326 326 328 329 330 331 332 335 336 334 332
68 64 57 48 39 30 22 10 349 334 331 331 334 346 1 354 349 345 345 344 337 330 329 333 337 340 341 343 343 343 339 337 335 333 331 329 326 322 319 315 309 301 294 287 282 276 270 265 260 257 257 262 271 281 287 290 293 295 298 300 300 299 298 297 297 298 298 302 307 313 318 321 323 324 326 325 325 326 330 335 338 340 340 342 340 336
64 58 50 42 34 26 20 5 349 342 343 341 342 346 352 353 352 349 344 339 332 329 334 339 341 342 343 345 345 343 340 337 334 332 330 330 328 326 323 321 318 313 307 300 293 286 277 266 253 242 233 236 248 264 278 284 289 293 296 295 293 291 291 292 294 297 300 304 308 311 312 312 314 316 316 318 321 326 331 337 343 348 353 351 348 340
68 59 47 39 32 25 12 355 346 344 346 348 346 343 343 344 348 346 341 333 331 332 338 341 341 341 343 345 345 344 342 338 335 332 330 330 329 328 326 326 326 325 322 319 315 310 304 289 261 233 213 212 224 244 267 277 284 288 289 288 287 287 289 294 299 305 308 310 311 310 307 303 302 303 305 310 316 324 332 339 348 359 7 6 359 346
73 64 51 39 30 18 358 345 343 345 349 349 346 341 339 341 342 345 343 338 336 337 338 339 339 341 344 344 343 343 343 338 335 332 330 329 328 327 326 327 329 330 330 330 330 330 330 330 325 296 196 196 206 224 254 272 282 289 292 293 293 296 299 303 306 309 309 309 308 307 302 299 298 299 302 310 318 326 335 343 350 359 8 9 4 353